Overview Statistics Trail Chart Weather Telemetry Raw packets
 

This is the latest recevied weather packets stored in our database for station/object N5DGC. If no packets are shown the sender has not sent any weather packets the latest 10 day(s).

<< 91 92 93 94 95 96 97 >>
Time Temp. Humidity Pressure Rain* Wind** Luminosity Snow
1787930926 27.78° C 34% 1245.3 hPa 0 mm - 487 W/m² -
1787930625 28.33° C 33% 1245.6 hPa 0 mm - 455 W/m² -
1787930321 27.22° C 35% 1245.6 hPa 0 mm - 436 W/m² -
1787930016 26.11° C 38% 1245.5 hPa 0 mm - 413 W/m² -
1787929714 25° C 39% 1245.3 hPa 0 mm - 387 W/m² -
1787929409 24.44° C 40% 1245.3 hPa 0 mm - 297 W/m² -
1787929106 23.89° C 41% 1245.6 hPa 0 mm - 273 W/m² -
1787928803 23.89° C 42% 1245.6 hPa 0 mm - 175 W/m² -
1787928501 23.33° C 42% 1245.7 hPa 0 mm - 98 W/m² -
1787928200 23.33° C 42% 1245.6 hPa 0 mm - 56 W/m² -
1787927899 22.78° C 43% 1245.6 hPa 0 mm - 74 W/m² -
1787927595 22.78° C 44% 1245.5 hPa 0 mm - 51 W/m² -
1787927298 22.22° C 45% 1245.5 hPa 0 mm - 49 W/m² -
1787926991 22.22° C 45% 1245.6 hPa 0 mm - 65 W/m² -
1787926691 21.67° C 46% 1245.6 hPa 0 mm - 84 W/m² -
1787926389 21.67° C 48% 1245.6 hPa 0 mm - 117 W/m² -
1787926084 21.67° C 48% 1245.6 hPa 0 mm - 130 W/m² -
1787925784 21.11° C 48% 1245.3 hPa 0 mm - 85 W/m² -
1787925483 20.56° C 50% 1245.2 hPa 0 mm - 92 W/m² -
1787925178 20° C 53% 1245.2 hPa 0 mm - 103 W/m² -
1787924876 19.44° C 55% 1245.1 hPa 0 mm - 50 W/m² -
1787924572 18.89° C 55% 1245.3 hPa 0 mm - 67 W/m² -
1787924267 18.89° C 54% 1245.2 hPa 0 mm - 46 W/m² -
1787923962 18.89° C 53% 1245.1 hPa 0 mm - 35 W/m² -
1787923662 18.33° C 54% 1245.1 hPa 0 mm - 40 W/m² -

* Rain latest hour (hover to see other rain measurements)
** Current wind speed in m/s (hover to see current wind gust speed)